Index of /20260428/WXO-DD/model_rdps/10km/00/034
Name Last modified Size Description
Parent Directory -
20260428T00Z_MSC_RDPS_AbsoluteVorticity_IsbL-0250_RLatLon0.09_PT034H.grib2 2026-04-28 02:50 631K
20260428T00Z_MSC_RDPS_AbsoluteVorticity_IsbL-0500_RLatLon0.09_PT034H.grib2 2026-04-28 02:50 573K
20260428T00Z_MSC_RDPS_AbsoluteVorticity_IsbL-0700_RLatLon0.09_PT034H.grib2 2026-04-28 02:50 616K
20260428T00Z_MSC_RDPS_AbsoluteVorticity_IsbL-0850_RLatLon0.09_PT034H.grib2 2026-04-28 02:50 777K
20260428T00Z_MSC_RDPS_AirTemp_AGL-120m_RLatLon0.09_PT034H.grib2 2026-04-28 02:50 393K
20260428T00Z_MSC_RDPS_AirTemp_AGL-2m_RLatLon0.09_PT034H.grib2 2026-04-28 02:50 633K
20260428T00Z_MSC_RDPS_AirTemp_AGL-40m_RLatLon0.09_PT034H.grib2 2026-04-28 02:50 409K
20260428T00Z_MSC_RDPS_AirTemp_AGL-80m_RLatLon0.09_PT034H.grib2 2026-04-28 02:50 400K
20260428T00Z_MSC_RDPS_AirTemp_IsbL-0001_RLatLon0.09_PT034H.grib2 2026-04-28 02:50 258K
20260428T00Z_MSC_RDPS_AirTemp_IsbL-0005_RLatLon0.09_PT034H.grib2 2026-04-28 02:50 296K
20260428T00Z_MSC_RDPS_AirTemp_IsbL-0010_RLatLon0.09_PT034H.grib2 2026-04-28 02:50 306K
20260428T00Z_MSC_RDPS_AirTemp_IsbL-0020_RLatLon0.09_PT034H.grib2 2026-04-28 02:50 320K
20260428T00Z_MSC_RDPS_AirTemp_IsbL-0030_RLatLon0.09_PT034H.grib2 2026-04-28 02:50 341K
20260428T00Z_MSC_RDPS_AirTemp_IsbL-0050_RLatLon0.09_PT034H.grib2 2026-04-28 02:50 318K
20260428T00Z_MSC_RDPS_AirTemp_IsbL-0100_RLatLon0.09_PT034H.grib2 2026-04-28 02:50 431K
20260428T00Z_MSC_RDPS_AirTemp_IsbL-0150_RLatLon0.09_PT034H.grib2 2026-04-28 02:50 432K
20260428T00Z_MSC_RDPS_AirTemp_IsbL-0175_RLatLon0.09_PT034H.grib2 2026-04-28 02:50 417K
20260428T00Z_MSC_RDPS_AirTemp_IsbL-0200_RLatLon0.09_PT034H.grib2 2026-04-28 02:50 422K
20260428T00Z_MSC_RDPS_AirTemp_IsbL-0225_RLatLon0.09_PT034H.grib2 2026-04-28 02:50 423K
20260428T00Z_MSC_RDPS_AirTemp_IsbL-0250_RLatLon0.09_PT034H.grib2 2026-04-28 02:50 434K
20260428T00Z_MSC_RDPS_AirTemp_IsbL-0275_RLatLon0.09_PT034H.grib2 2026-04-28 02:50 415K
20260428T00Z_MSC_RDPS_AirTemp_IsbL-0300_RLatLon0.09_PT034H.grib2 2026-04-28 02:50 421K
20260428T00Z_MSC_RDPS_AirTemp_IsbL-0350_RLatLon0.09_PT034H.grib2 2026-04-28 02:50 431K
20260428T00Z_MSC_RDPS_AirTemp_IsbL-0400_RLatLon0.09_PT034H.grib2 2026-04-28 02:50 431K
20260428T00Z_MSC_RDPS_AirTemp_IsbL-0450_RLatLon0.09_PT034H.grib2 2026-04-28 02:50 401K
20260428T00Z_MSC_RDPS_AirTemp_IsbL-0500_RLatLon0.09_PT034H.grib2 2026-04-28 02:50 409K
20260428T00Z_MSC_RDPS_AirTemp_IsbL-0550_RLatLon0.09_PT034H.grib2 2026-04-28 02:50 427K
20260428T00Z_MSC_RDPS_AirTemp_IsbL-0600_RLatLon0.09_PT034H.grib2 2026-04-28 02:50 441K
20260428T00Z_MSC_RDPS_AirTemp_IsbL-0650_RLatLon0.09_PT034H.grib2 2026-04-28 02:50 457K
20260428T00Z_MSC_RDPS_AirTemp_IsbL-0700_RLatLon0.09_PT034H.grib2 2026-04-28 02:50 375K
20260428T00Z_MSC_RDPS_AirTemp_IsbL-0750_RLatLon0.09_PT034H.grib2 2026-04-28 02:50 407K
20260428T00Z_MSC_RDPS_AirTemp_IsbL-0800_RLatLon0.09_PT034H.grib2 2026-04-28 02:50 453K
20260428T00Z_MSC_RDPS_AirTemp_IsbL-0850_RLatLon0.09_PT034H.grib2 2026-04-28 02:50 505K
20260428T00Z_MSC_RDPS_AirTemp_IsbL-0875_RLatLon0.09_PT034H.grib2 2026-04-28 02:50 524K
20260428T00Z_MSC_RDPS_AirTemp_IsbL-0900_RLatLon0.09_PT034H.grib2 2026-04-28 02:50 530K
20260428T00Z_MSC_RDPS_AirTemp_IsbL-0925_RLatLon0.09_PT034H.grib2 2026-04-28 02:50 526K
20260428T00Z_MSC_RDPS_AirTemp_IsbL-0950_RLatLon0.09_PT034H.grib2 2026-04-28 02:50 527K
20260428T00Z_MSC_RDPS_AirTemp_IsbL-0970_RLatLon0.09_PT034H.grib2 2026-04-28 02:50 518K
20260428T00Z_MSC_RDPS_AirTemp_IsbL-0985_RLatLon0.09_PT034H.grib2 2026-04-28 02:50 504K
20260428T00Z_MSC_RDPS_AirTemp_IsbL-1000_RLatLon0.09_PT034H.grib2 2026-04-28 02:50 489K
20260428T00Z_MSC_RDPS_AirTemp_IsbL-1015_RLatLon0.09_PT034H.grib2 2026-04-28 02:50 489K
20260428T00Z_MSC_RDPS_Albedo_Sfc_RLatLon0.09_PT034H.grib2 2026-04-28 02:50 161K
20260428T00Z_MSC_RDPS_CAPE_Sfc_RLatLon0.09_PT034H.grib2 2026-04-28 02:50 1.6M
20260428T00Z_MSC_RDPS_CIN_Sfc_RLatLon0.09_PT034H.grib2 2026-04-28 02:50 1.1M
20260428T00Z_MSC_RDPS_CloudWater_EAtm_RLatLon0.09_PT034H.grib2 2026-04-28 02:50 218K
20260428T00Z_MSC_RDPS_ConvectivePrecip-Accum_Sfc_RLatLon0.09_PT034H.grib2 2026-04-28 02:50 967K
20260428T00Z_MSC_RDPS_DewPointDepression_AGL-2m_RLatLon0.09_PT034H.grib2 2026-04-28 02:50 391K
20260428T00Z_MSC_RDPS_DewPointDepression_IsbL-0001_RLatLon0.09_PT034H.grib2 2026-04-28 02:50 193
20260428T00Z_MSC_RDPS_DewPointDepression_IsbL-0005_RLatLon0.09_PT034H.grib2 2026-04-28 02:50 193
20260428T00Z_MSC_RDPS_DewPointDepression_IsbL-0010_RLatLon0.09_PT034H.grib2 2026-04-28 02:50 193
20260428T00Z_MSC_RDPS_DewPointDepression_IsbL-0020_RLatLon0.09_PT034H.grib2 2026-04-28 02:50 193
20260428T00Z_MSC_RDPS_DewPointDepression_IsbL-0030_RLatLon0.09_PT034H.grib2 2026-04-28 02:50 193
20260428T00Z_MSC_RDPS_DewPointDepression_IsbL-0050_RLatLon0.09_PT034H.grib2 2026-04-28 02:50 87K
20260428T00Z_MSC_RDPS_DewPointDepression_IsbL-0100_RLatLon0.09_PT034H.grib2 2026-04-28 02:50 132K
20260428T00Z_MSC_RDPS_DewPointDepression_IsbL-0150_RLatLon0.09_PT034H.grib2 2026-04-28 02:50 148K
20260428T00Z_MSC_RDPS_DewPointDepression_IsbL-0175_RLatLon0.09_PT034H.grib2 2026-04-28 02:50 175K
20260428T00Z_MSC_RDPS_DewPointDepression_IsbL-0200_RLatLon0.09_PT034H.grib2 2026-04-28 02:50 215K
20260428T00Z_MSC_RDPS_DewPointDepression_IsbL-0225_RLatLon0.09_PT034H.grib2 2026-04-28 02:50 263K
20260428T00Z_MSC_RDPS_DewPointDepression_IsbL-0250_RLatLon0.09_PT034H.grib2 2026-04-28 02:50 301K
20260428T00Z_MSC_RDPS_DewPointDepression_IsbL-0275_RLatLon0.09_PT034H.grib2 2026-04-28 02:50 309K
20260428T00Z_MSC_RDPS_DewPointDepression_IsbL-0300_RLatLon0.09_PT034H.grib2 2026-04-28 02:50 328K
20260428T00Z_MSC_RDPS_DewPointDepression_IsbL-0350_RLatLon0.09_PT034H.grib2 2026-04-28 02:50 333K
20260428T00Z_MSC_RDPS_DewPointDepression_IsbL-0400_RLatLon0.09_PT034H.grib2 2026-04-28 02:50 341K
20260428T00Z_MSC_RDPS_DewPointDepression_IsbL-0450_RLatLon0.09_PT034H.grib2 2026-04-28 02:50 346K
20260428T00Z_MSC_RDPS_DewPointDepression_IsbL-0500_RLatLon0.09_PT034H.grib2 2026-04-28 02:50 353K
20260428T00Z_MSC_RDPS_DewPointDepression_IsbL-0550_RLatLon0.09_PT034H.grib2 2026-04-28 02:50 364K
20260428T00Z_MSC_RDPS_DewPointDepression_IsbL-0600_RLatLon0.09_PT034H.grib2 2026-04-28 02:50 371K
20260428T00Z_MSC_RDPS_DewPointDepression_IsbL-0650_RLatLon0.09_PT034H.grib2 2026-04-28 02:50 374K
20260428T00Z_MSC_RDPS_DewPointDepression_IsbL-0700_RLatLon0.09_PT034H.grib2 2026-04-28 02:50 387K
20260428T00Z_MSC_RDPS_DewPointDepression_IsbL-0750_RLatLon0.09_PT034H.grib2 2026-04-28 02:50 408K
20260428T00Z_MSC_RDPS_DewPointDepression_IsbL-0800_RLatLon0.09_PT034H.grib2 2026-04-28 02:50 441K
20260428T00Z_MSC_RDPS_DewPointDepression_IsbL-0850_RLatLon0.09_PT034H.grib2 2026-04-28 02:50 468K
20260428T00Z_MSC_RDPS_DewPointDepression_IsbL-0875_RLatLon0.09_PT034H.grib2 2026-04-28 02:50 470K
20260428T00Z_MSC_RDPS_DewPointDepression_IsbL-0900_RLatLon0.09_PT034H.grib2 2026-04-28 02:50 459K
20260428T00Z_MSC_RDPS_DewPointDepression_IsbL-0925_RLatLon0.09_PT034H.grib2 2026-04-28 02:50 449K
20260428T00Z_MSC_RDPS_DewPointDepression_IsbL-0950_RLatLon0.09_PT034H.grib2 2026-04-28 02:50 444K
20260428T00Z_MSC_RDPS_DewPointDepression_IsbL-0970_RLatLon0.09_PT034H.grib2 2026-04-28 02:50 434K
20260428T00Z_MSC_RDPS_DewPointDepression_IsbL-0985_RLatLon0.09_PT034H.grib2 2026-04-28 02:50 428K
20260428T00Z_MSC_RDPS_DewPointDepression_IsbL-1000_RLatLon0.09_PT034H.grib2 2026-04-28 02:50 424K
20260428T00Z_MSC_RDPS_DewPointDepression_IsbL-1015_RLatLon0.09_PT034H.grib2 2026-04-28 02:50 418K
20260428T00Z_MSC_RDPS_DewPoint_AGL-2m_RLatLon0.09_PT034H.grib2 2026-04-28 02:50 311K
20260428T00Z_MSC_RDPS_DownwardLongwaveRadiationFlux-Accum_Sfc_RLatLon0.09_PT034H.grib2 2026-04-28 02:50 490K
20260428T00Z_MSC_RDPS_DownwardShortwaveRadiationFlux-Accum_NTAtm_RLatLon0.09_PT034H.grib2 2026-04-28 02:50 114K
20260428T00Z_MSC_RDPS_DownwardShortwaveRadiationFlux-Accum_Sfc_RLatLon0.09_PT034H.grib2 2026-04-28 02:50 524K
20260428T00Z_MSC_RDPS_FreezingRain-Accum1h_Sfc_RLatLon0.09_PT034H.grib2 2026-04-28 02:50 42K
20260428T00Z_MSC_RDPS_FreezingRain-Accum_Sfc_RLatLon0.09_PT034H.grib2 2026-04-28 02:50 154K
20260428T00Z_MSC_RDPS_GeopotentialHeight_IsbL-0001_RLatLon0.09_PT034H.grib2 2026-04-28 02:50 240K
20260428T00Z_MSC_RDPS_GeopotentialHeight_IsbL-0005_RLatLon0.09_PT034H.grib2 2026-04-28 02:50 340K
20260428T00Z_MSC_RDPS_GeopotentialHeight_IsbL-0010_RLatLon0.09_PT034H.grib2 2026-04-28 02:50 308K
20260428T00Z_MSC_RDPS_GeopotentialHeight_IsbL-0020_RLatLon0.09_PT034H.grib2 2026-04-28 02:50 307K
20260428T00Z_MSC_RDPS_GeopotentialHeight_IsbL-0030_RLatLon0.09_PT034H.grib2 2026-04-28 02:50 308K
20260428T00Z_MSC_RDPS_GeopotentialHeight_IsbL-0050_RLatLon0.09_PT034H.grib2 2026-04-28 02:50 310K
20260428T00Z_MSC_RDPS_GeopotentialHeight_IsbL-0100_RLatLon0.09_PT034H.grib2 2026-04-28 02:50 288K
20260428T00Z_MSC_RDPS_GeopotentialHeight_IsbL-0150_RLatLon0.09_PT034H.grib2 2026-04-28 02:50 231K
20260428T00Z_MSC_RDPS_GeopotentialHeight_IsbL-0175_RLatLon0.09_PT034H.grib2 2026-04-28 02:50 234K
20260428T00Z_MSC_RDPS_GeopotentialHeight_IsbL-0200_RLatLon0.09_PT034H.grib2 2026-04-28 02:50 268K
20260428T00Z_MSC_RDPS_GeopotentialHeight_IsbL-0225_RLatLon0.09_PT034H.grib2 2026-04-28 02:50 269K
20260428T00Z_MSC_RDPS_GeopotentialHeight_IsbL-0250_RLatLon0.09_PT034H.grib2 2026-04-28 02:50 269K
20260428T00Z_MSC_RDPS_GeopotentialHeight_IsbL-0275_RLatLon0.09_PT034H.grib2 2026-04-28 02:50 268K
20260428T00Z_MSC_RDPS_GeopotentialHeight_IsbL-0300_RLatLon0.09_PT034H.grib2 2026-04-28 02:50 268K
20260428T00Z_MSC_RDPS_GeopotentialHeight_IsbL-0350_RLatLon0.09_PT034H.grib2 2026-04-28 02:50 233K
20260428T00Z_MSC_RDPS_GeopotentialHeight_IsbL-0400_RLatLon0.09_PT034H.grib2 2026-04-28 02:50 230K
20260428T00Z_MSC_RDPS_GeopotentialHeight_IsbL-0450_RLatLon0.09_PT034H.grib2 2026-04-28 02:50 298K
20260428T00Z_MSC_RDPS_GeopotentialHeight_IsbL-0500_RLatLon0.09_PT034H.grib2 2026-04-28 02:50 293K
20260428T00Z_MSC_RDPS_GeopotentialHeight_IsbL-0550_RLatLon0.09_PT034H.grib2 2026-04-28 02:50 289K
20260428T00Z_MSC_RDPS_GeopotentialHeight_IsbL-0600_RLatLon0.09_PT034H.grib2 2026-04-28 02:50 284K
20260428T00Z_MSC_RDPS_GeopotentialHeight_IsbL-0650_RLatLon0.09_PT034H.grib2 2026-04-28 02:50 254K
20260428T00Z_MSC_RDPS_GeopotentialHeight_IsbL-0700_RLatLon0.09_PT034H.grib2 2026-04-28 02:50 334K
20260428T00Z_MSC_RDPS_GeopotentialHeight_IsbL-0750_RLatLon0.09_PT034H.grib2 2026-04-28 02:50 336K
20260428T00Z_MSC_RDPS_GeopotentialHeight_IsbL-0800_RLatLon0.09_PT034H.grib2 2026-04-28 02:50 345K
20260428T00Z_MSC_RDPS_GeopotentialHeight_IsbL-0850_RLatLon0.09_PT034H.grib2 2026-04-28 02:50 355K
20260428T00Z_MSC_RDPS_GeopotentialHeight_IsbL-0875_RLatLon0.09_PT034H.grib2 2026-04-28 02:50 359K
20260428T00Z_MSC_RDPS_GeopotentialHeight_IsbL-0900_RLatLon0.09_PT034H.grib2 2026-04-28 02:50 362K
20260428T00Z_MSC_RDPS_GeopotentialHeight_IsbL-0925_RLatLon0.09_PT034H.grib2 2026-04-28 02:50 365K
20260428T00Z_MSC_RDPS_GeopotentialHeight_IsbL-0950_RLatLon0.09_PT034H.grib2 2026-04-28 02:50 371K
20260428T00Z_MSC_RDPS_GeopotentialHeight_IsbL-0970_RLatLon0.09_PT034H.grib2 2026-04-28 02:50 375K
20260428T00Z_MSC_RDPS_GeopotentialHeight_IsbL-0985_RLatLon0.09_PT034H.grib2 2026-04-28 02:50 383K
20260428T00Z_MSC_RDPS_GeopotentialHeight_IsbL-1000_RLatLon0.09_PT034H.grib2 2026-04-28 02:50 395K
20260428T00Z_MSC_RDPS_GeopotentialHeight_IsbL-1015_RLatLon0.09_PT034H.grib2 2026-04-28 02:50 409K
20260428T00Z_MSC_RDPS_Humidex_Sfc_RLatLon0.09_PT034H.grib2 2026-04-28 02:50 2.4M
20260428T00Z_MSC_RDPS_IcePellets-Accum1h_Sfc_RLatLon0.09_PT034H.grib2 2026-04-28 02:50 5.7K
20260428T00Z_MSC_RDPS_IcePellets-Accum_Sfc_RLatLon0.09_PT034H.grib2 2026-04-28 02:50 24K
20260428T00Z_MSC_RDPS_KIndex_Sfc_RLatLon0.09_PT034H.grib2 2026-04-28 02:50 2.5M
20260428T00Z_MSC_RDPS_LatentHeatNetFlux_Sfc_RLatLon0.09_PT034H.grib2 2026-04-28 02:50 404K
20260428T00Z_MSC_RDPS_LiftedIndex-MU-VT_IsbL-0500_RLatLon0.09_PT034H.grib2 2026-04-28 02:50 2.4M
20260428T00Z_MSC_RDPS_NetLongwaveRadiationFlux-Accum_Sfc_RLatLon0.09_PT034H.grib2 2026-04-28 02:50 491K
20260428T00Z_MSC_RDPS_NetShortwaveRadiationFlux-Accum_Sfc_RLatLon0.09_PT034H.grib2 2026-04-28 02:50 661K
20260428T00Z_MSC_RDPS_PlanetaryBoundaryLayerHeight_Sfc_RLatLon0.09_PT034H.grib2 2026-04-28 02:50 1.1M
20260428T00Z_MSC_RDPS_Precip-Accum1h_Sfc_RLatLon0.09_PT034H.grib2 2026-04-28 02:50 1.2M
20260428T00Z_MSC_RDPS_Precip-Accum_Sfc_RLatLon0.09_PT034H.grib2 2026-04-28 02:50 1.9M
20260428T00Z_MSC_RDPS_PrecipRate_Sfc_RLatLon0.09_PT034H.grib2 2026-04-28 02:50 163K
20260428T00Z_MSC_RDPS_PrecipType-Instant_Sfc_RLatLon0.09_PT034H.grib2 2026-04-28 02:50 571K
20260428T00Z_MSC_RDPS_Pressure-Trend3h_Sfc_RLatLon0.09_PT034H.grib2 2026-04-28 02:50 1.2M
20260428T00Z_MSC_RDPS_Pressure_MSL_RLatLon0.09_PT034H.grib2 2026-04-28 02:50 294K
20260428T00Z_MSC_RDPS_Pressure_PVU-1.5_RLatLon0.09_PT034H.grib2 2026-04-28 02:50 2.5M
20260428T00Z_MSC_RDPS_Pressure_PVU-1_RLatLon0.09_PT034H.grib2 2026-04-28 02:50 2.4M
20260428T00Z_MSC_RDPS_Pressure_PVU-2_RLatLon0.09_PT034H.grib2 2026-04-28 02:50 2.4M
20260428T00Z_MSC_RDPS_Pressure_Sfc_RLatLon0.09_PT034H.grib2 2026-04-28 02:50 501K
20260428T00Z_MSC_RDPS_RadiativeTemp_Sfc_RLatLon0.09_PT034H.grib2 2026-04-28 02:50 303K
20260428T00Z_MSC_RDPS_Rain-Accum1h_Sfc_RLatLon0.09_PT034H.grib2 2026-04-28 02:50 524K
20260428T00Z_MSC_RDPS_Rain-Accum_Sfc_RLatLon0.09_PT034H.grib2 2026-04-28 02:50 1.5M
20260428T00Z_MSC_RDPS_RelativeHumidity_AGL-2m_RLatLon0.09_PT034H.grib2 2026-04-28 02:50 1.0M
20260428T00Z_MSC_RDPS_RelativeHumidity_IsbL-0010_RLatLon0.09_PT034H.grib2 2026-04-28 02:50 628K
20260428T00Z_MSC_RDPS_RelativeHumidity_IsbL-0020_RLatLon0.09_PT034H.grib2 2026-04-28 02:50 650K
20260428T00Z_MSC_RDPS_RelativeHumidity_IsbL-0030_RLatLon0.09_PT034H.grib2 2026-04-28 02:50 539K
20260428T00Z_MSC_RDPS_RelativeHumidity_IsbL-0050_RLatLon0.09_PT034H.grib2 2026-04-28 02:50 327K
20260428T00Z_MSC_RDPS_RelativeHumidity_IsbL-0100_RLatLon0.09_PT034H.grib2 2026-04-28 02:50 284K
20260428T00Z_MSC_RDPS_RelativeHumidity_IsbL-0150_RLatLon0.09_PT034H.grib2 2026-04-28 02:50 421K
20260428T00Z_MSC_RDPS_RelativeHumidity_IsbL-0175_RLatLon0.09_PT034H.grib2 2026-04-28 02:50 484K
20260428T00Z_MSC_RDPS_RelativeHumidity_IsbL-0200_RLatLon0.09_PT034H.grib2 2026-04-28 02:50 555K
20260428T00Z_MSC_RDPS_RelativeHumidity_IsbL-0225_RLatLon0.09_PT034H.grib2 2026-04-28 02:50 620K
20260428T00Z_MSC_RDPS_RelativeHumidity_IsbL-0250_RLatLon0.09_PT034H.grib2 2026-04-28 02:50 690K
20260428T00Z_MSC_RDPS_RelativeHumidity_IsbL-0275_RLatLon0.09_PT034H.grib2 2026-04-28 02:50 721K
20260428T00Z_MSC_RDPS_RelativeHumidity_IsbL-0300_RLatLon0.09_PT034H.grib2 2026-04-28 02:50 765K
20260428T00Z_MSC_RDPS_RelativeHumidity_IsbL-0350_RLatLon0.09_PT034H.grib2 2026-04-28 02:50 785K
20260428T00Z_MSC_RDPS_RelativeHumidity_IsbL-0400_RLatLon0.09_PT034H.grib2 2026-04-28 02:50 797K
20260428T00Z_MSC_RDPS_RelativeHumidity_IsbL-0450_RLatLon0.09_PT034H.grib2 2026-04-28 02:50 798K
20260428T00Z_MSC_RDPS_RelativeHumidity_IsbL-0500_RLatLon0.09_PT034H.grib2 2026-04-28 02:50 804K
20260428T00Z_MSC_RDPS_RelativeHumidity_IsbL-0550_RLatLon0.09_PT034H.grib2 2026-04-28 02:50 820K
20260428T00Z_MSC_RDPS_RelativeHumidity_IsbL-0600_RLatLon0.09_PT034H.grib2 2026-04-28 02:50 833K
20260428T00Z_MSC_RDPS_RelativeHumidity_IsbL-0650_RLatLon0.09_PT034H.grib2 2026-04-28 02:50 841K
20260428T00Z_MSC_RDPS_RelativeHumidity_IsbL-0700_RLatLon0.09_PT034H.grib2 2026-04-28 02:50 867K
20260428T00Z_MSC_RDPS_RelativeHumidity_IsbL-0750_RLatLon0.09_PT034H.grib2 2026-04-28 02:50 912K
20260428T00Z_MSC_RDPS_RelativeHumidity_IsbL-0800_RLatLon0.09_PT034H.grib2 2026-04-28 02:50 1.0M
20260428T00Z_MSC_RDPS_RelativeHumidity_IsbL-0850_RLatLon0.09_PT034H.grib2 2026-04-28 02:50 1.0M
20260428T00Z_MSC_RDPS_RelativeHumidity_IsbL-0875_RLatLon0.09_PT034H.grib2 2026-04-28 02:50 1.1M
20260428T00Z_MSC_RDPS_RelativeHumidity_IsbL-0900_RLatLon0.09_PT034H.grib2 2026-04-28 02:50 1.1M
20260428T00Z_MSC_RDPS_RelativeHumidity_IsbL-0925_RLatLon0.09_PT034H.grib2 2026-04-28 02:50 1.1M
20260428T00Z_MSC_RDPS_RelativeHumidity_IsbL-0950_RLatLon0.09_PT034H.grib2 2026-04-28 02:50 1.1M
20260428T00Z_MSC_RDPS_RelativeHumidity_IsbL-0970_RLatLon0.09_PT034H.grib2 2026-04-28 02:50 1.1M
20260428T00Z_MSC_RDPS_RelativeHumidity_IsbL-0985_RLatLon0.09_PT034H.grib2 2026-04-28 02:50 1.0M
20260428T00Z_MSC_RDPS_RelativeHumidity_IsbL-1000_RLatLon0.09_PT034H.grib2 2026-04-28 02:50 1.0M
20260428T00Z_MSC_RDPS_RelativeHumidity_IsbL-1015_RLatLon0.09_PT034H.grib2 2026-04-28 02:50 1.0M
20260428T00Z_MSC_RDPS_Runoff-Accum_Sfc_RLatLon0.09_PT034H.grib2 2026-04-28 02:50 56K
20260428T00Z_MSC_RDPS_SWEATIndex_Sfc_RLatLon0.09_PT034H.grib2 2026-04-28 02:50 2.4M
20260428T00Z_MSC_RDPS_SeeingIndex_EAtm_RLatLon0.09_PT034H.grib2 2026-04-28 02:50 1.0M
20260428T00Z_MSC_RDPS_SensibleHeatNetFlux_Sfc_RLatLon0.09_PT034H.grib2 2026-04-28 02:50 296K
20260428T00Z_MSC_RDPS_ShowalterIndex_IsbL-0500_RLatLon0.09_PT034H.grib2 2026-04-28 02:50 2.6M
20260428T00Z_MSC_RDPS_SkyTransparencyIndex_EAtm_RLatLon0.09_PT034H.grib2 2026-04-28 02:50 693K
20260428T00Z_MSC_RDPS_Snow-Accum1h_Sfc_RLatLon0.09_PT034H.grib2 2026-04-28 02:50 460K
20260428T00Z_MSC_RDPS_Snow-Accum_Sfc_RLatLon0.09_PT034H.grib2 2026-04-28 02:50 766K
20260428T00Z_MSC_RDPS_SnowDensity_Sfc_RLatLon0.09_PT034H.grib2 2026-04-28 02:50 183K
20260428T00Z_MSC_RDPS_SnowDepth_Sfc_RLatLon0.09_PT034H.grib2 2026-04-28 02:50 696K
20260428T00Z_MSC_RDPS_SoilTemp_DBS-0to10cm_RLatLon0.09_PT034H.grib2 2026-04-28 02:50 228K
20260428T00Z_MSC_RDPS_SoilTemp_Sfc_RLatLon0.09_PT034H.grib2 2026-04-28 02:50 274K
20260428T00Z_MSC_RDPS_SoilVolumetricIceContent_Sfc_RLatLon0.09_PT034H.grib2 2026-04-28 02:50 167K
20260428T00Z_MSC_RDPS_SoilVolumetricWaterContent_DBS-0to10cm_RLatLon0.09_PT034H.grib2 2026-04-28 02:50 264K
20260428T00Z_MSC_RDPS_SoilVolumetricWaterContent_DBS-0to1cm_RLatLon0.09_PT034H.grib2 2026-04-28 02:50 336K
20260428T00Z_MSC_RDPS_SpecificHumidity_AGL-120m_RLatLon0.09_PT034H.grib2 2026-04-28 02:50 485K
20260428T00Z_MSC_RDPS_SpecificHumidity_AGL-2m_RLatLon0.09_PT034H.grib2 2026-04-28 02:50 650K
20260428T00Z_MSC_RDPS_SpecificHumidity_AGL-40m_RLatLon0.09_PT034H.grib2 2026-04-28 02:50 490K
20260428T00Z_MSC_RDPS_SpecificHumidity_AGL-80m_RLatLon0.09_PT034H.grib2 2026-04-28 02:50 487K
20260428T00Z_MSC_RDPS_SpecificHumidity_IsbL-0001_RLatLon0.09_PT034H.grib2 2026-04-28 02:50 336K
20260428T00Z_MSC_RDPS_SpecificHumidity_IsbL-0005_RLatLon0.09_PT034H.grib2 2026-04-28 02:50 359K
20260428T00Z_MSC_RDPS_SpecificHumidity_IsbL-0010_RLatLon0.09_PT034H.grib2 2026-04-28 02:50 400K
20260428T00Z_MSC_RDPS_SpecificHumidity_IsbL-0020_RLatLon0.09_PT034H.grib2 2026-04-28 02:50 389K
20260428T00Z_MSC_RDPS_SpecificHumidity_IsbL-0030_RLatLon0.09_PT034H.grib2 2026-04-28 02:50 371K
20260428T00Z_MSC_RDPS_SpecificHumidity_IsbL-0050_RLatLon0.09_PT034H.grib2 2026-04-28 02:50 463K
20260428T00Z_MSC_RDPS_SpecificHumidity_IsbL-0100_RLatLon0.09_PT034H.grib2 2026-04-28 02:50 453K
20260428T00Z_MSC_RDPS_SpecificHumidity_IsbL-0150_RLatLon0.09_PT034H.grib2 2026-04-28 02:50 486K
20260428T00Z_MSC_RDPS_SpecificHumidity_IsbL-0175_RLatLon0.09_PT034H.grib2 2026-04-28 02:50 439K
20260428T00Z_MSC_RDPS_SpecificHumidity_IsbL-0200_RLatLon0.09_PT034H.grib2 2026-04-28 02:50 453K
20260428T00Z_MSC_RDPS_SpecificHumidity_IsbL-0225_RLatLon0.09_PT034H.grib2 2026-04-28 02:50 453K
20260428T00Z_MSC_RDPS_SpecificHumidity_IsbL-0250_RLatLon0.09_PT034H.grib2 2026-04-28 02:50 557K
20260428T00Z_MSC_RDPS_SpecificHumidity_IsbL-0275_RLatLon0.09_PT034H.grib2 2026-04-28 02:50 472K
20260428T00Z_MSC_RDPS_SpecificHumidity_IsbL-0300_RLatLon0.09_PT034H.grib2 2026-04-28 02:50 570K
20260428T00Z_MSC_RDPS_SpecificHumidity_IsbL-0350_RLatLon0.09_PT034H.grib2 2026-04-28 02:50 565K
20260428T00Z_MSC_RDPS_SpecificHumidity_IsbL-0400_RLatLon0.09_PT034H.grib2 2026-04-28 02:50 520K
20260428T00Z_MSC_RDPS_SpecificHumidity_IsbL-0450_RLatLon0.09_PT034H.grib2 2026-04-28 02:50 570K
20260428T00Z_MSC_RDPS_SpecificHumidity_IsbL-0500_RLatLon0.09_PT034H.grib2 2026-04-28 02:50 507K
20260428T00Z_MSC_RDPS_SpecificHumidity_IsbL-0550_RLatLon0.09_PT034H.grib2 2026-04-28 02:50 579K
20260428T00Z_MSC_RDPS_SpecificHumidity_IsbL-0600_RLatLon0.09_PT034H.grib2 2026-04-28 02:50 629K
20260428T00Z_MSC_RDPS_SpecificHumidity_IsbL-0650_RLatLon0.09_PT034H.grib2 2026-04-28 02:50 545K
20260428T00Z_MSC_RDPS_SpecificHumidity_IsbL-0700_RLatLon0.09_PT034H.grib2 2026-04-28 02:50 588K
20260428T00Z_MSC_RDPS_SpecificHumidity_IsbL-0750_RLatLon0.09_PT034H.grib2 2026-04-28 02:50 641K
20260428T00Z_MSC_RDPS_SpecificHumidity_IsbL-0800_RLatLon0.09_PT034H.grib2 2026-04-28 02:50 720K
20260428T00Z_MSC_RDPS_SpecificHumidity_IsbL-0850_RLatLon0.09_PT034H.grib2 2026-04-28 02:50 794K
20260428T00Z_MSC_RDPS_SpecificHumidity_IsbL-0875_RLatLon0.09_PT034H.grib2 2026-04-28 02:50 820K
20260428T00Z_MSC_RDPS_SpecificHumidity_IsbL-0900_RLatLon0.09_PT034H.grib2 2026-04-28 02:50 829K
20260428T00Z_MSC_RDPS_SpecificHumidity_IsbL-0925_RLatLon0.09_PT034H.grib2 2026-04-28 02:50 832K
20260428T00Z_MSC_RDPS_SpecificHumidity_IsbL-0950_RLatLon0.09_PT034H.grib2 2026-04-28 02:50 835K
20260428T00Z_MSC_RDPS_SpecificHumidity_IsbL-0970_RLatLon0.09_PT034H.grib2 2026-04-28 02:50 824K
20260428T00Z_MSC_RDPS_SpecificHumidity_IsbL-0985_RLatLon0.09_PT034H.grib2 2026-04-28 02:50 815K
20260428T00Z_MSC_RDPS_SpecificHumidity_IsbL-1000_RLatLon0.09_PT034H.grib2 2026-04-28 02:50 668K
20260428T00Z_MSC_RDPS_SpecificHumidity_IsbL-1015_RLatLon0.09_PT034H.grib2 2026-04-28 02:50 661K
20260428T00Z_MSC_RDPS_SpecificHumidity_Sfc_RLatLon0.09_PT034H.grib2 2026-04-28 02:50 289K
20260428T00Z_MSC_RDPS_StormRelativeHelicity_EtaL-10000_RLatLon0.09_PT034H.grib2 2026-04-28 02:50 1.1M
20260428T00Z_MSC_RDPS_StormSeverityIndex_EtaL-10000_RLatLon0.09_PT034H.grib2 2026-04-28 02:50 1.2M
20260428T00Z_MSC_RDPS_Thickness_IsbL-0850to0700_RLatLon0.09_PT034H.grib2 2026-04-28 02:50 177K
20260428T00Z_MSC_RDPS_Thickness_IsbL-1000to0500_RLatLon0.09_PT034H.grib2 2026-04-28 02:50 199K
20260428T00Z_MSC_RDPS_Thickness_IsbL-1000to0850_RLatLon0.09_PT034H.grib2 2026-04-28 02:50 261K
20260428T00Z_MSC_RDPS_TotalCloudCover_Sfc_RLatLon0.09_PT034H.grib2 2026-04-28 02:50 660K
20260428T00Z_MSC_RDPS_TotalTotalsIndex_Sfc_RLatLon0.09_PT034H.grib2 2026-04-28 02:50 2.4M
20260428T00Z_MSC_RDPS_UVIndex-ClearSky_Sfc_RLatLon0.09_PT034H.grib2 2026-04-28 02:50 130K
20260428T00Z_MSC_RDPS_UVIndex_Sfc_RLatLon0.09_PT034H.grib2 2026-04-28 02:50 246K
20260428T00Z_MSC_RDPS_UpwardLongwaveRadiationFlux_NTAtm_RLatLon0.09_PT034H.grib2 2026-04-28 02:50 491K
20260428T00Z_MSC_RDPS_UpwardShortwaveRadiationFlux_NTAtm_RLatLon0.09_PT034H.grib2 2026-04-28 02:50 190K
20260428T00Z_MSC_RDPS_VerticalVelocity_IsbL-0250_RLatLon0.09_PT034H.grib2 2026-04-28 02:50 560K
20260428T00Z_MSC_RDPS_VerticalVelocity_IsbL-0500_RLatLon0.09_PT034H.grib2 2026-04-28 02:50 548K
20260428T00Z_MSC_RDPS_VerticalVelocity_IsbL-0700_RLatLon0.09_PT034H.grib2 2026-04-28 02:50 588K
20260428T00Z_MSC_RDPS_VerticalVelocity_IsbL-0850_RLatLon0.09_PT034H.grib2 2026-04-28 02:50 688K
20260428T00Z_MSC_RDPS_VerticalWindShear_EtaL-6500_RLatLon0.09_PT034H.grib2 2026-04-28 02:50 1.2M
20260428T00Z_MSC_RDPS_WindChill_Sfc_RLatLon0.09_PT034H.grib2 2026-04-28 02:50 1.1M
20260428T00Z_MSC_RDPS_WindDir_AGL-10m_RLatLon0.09_PT034H.grib2 2026-04-28 02:50 1.0M
20260428T00Z_MSC_RDPS_WindDir_AGL-120m_RLatLon0.09_PT034H.grib2 2026-04-28 02:50 614K
20260428T00Z_MSC_RDPS_WindDir_AGL-40m_RLatLon0.09_PT034H.grib2 2026-04-28 02:50 645K
20260428T00Z_MSC_RDPS_WindDir_AGL-80m_RLatLon0.09_PT034H.grib2 2026-04-28 02:50 624K
20260428T00Z_MSC_RDPS_WindDir_IsbL-0001_RLatLon0.09_PT034H.grib2 2026-04-28 02:50 320K
20260428T00Z_MSC_RDPS_WindDir_IsbL-0005_RLatLon0.09_PT034H.grib2 2026-04-28 02:50 369K
20260428T00Z_MSC_RDPS_WindDir_IsbL-0010_RLatLon0.09_PT034H.grib2 2026-04-28 02:50 385K
20260428T00Z_MSC_RDPS_WindDir_IsbL-0020_RLatLon0.09_PT034H.grib2 2026-04-28 02:50 407K
20260428T00Z_MSC_RDPS_WindDir_IsbL-0030_RLatLon0.09_PT034H.grib2 2026-04-28 02:50 417K
20260428T00Z_MSC_RDPS_WindDir_IsbL-0050_RLatLon0.09_PT034H.grib2 2026-04-28 02:50 431K
20260428T00Z_MSC_RDPS_WindDir_IsbL-0100_RLatLon0.09_PT034H.grib2 2026-04-28 02:50 424K
20260428T00Z_MSC_RDPS_WindDir_IsbL-0150_RLatLon0.09_PT034H.grib2 2026-04-28 02:50 419K
20260428T00Z_MSC_RDPS_WindDir_IsbL-0175_RLatLon0.09_PT034H.grib2 2026-04-28 02:50 437K
20260428T00Z_MSC_RDPS_WindDir_IsbL-0200_RLatLon0.09_PT034H.grib2 2026-04-28 02:50 450K
20260428T00Z_MSC_RDPS_WindDir_IsbL-0225_RLatLon0.09_PT034H.grib2 2026-04-28 02:50 452K
20260428T00Z_MSC_RDPS_WindDir_IsbL-0250_RLatLon0.09_PT034H.grib2 2026-04-28 02:50 455K
20260428T00Z_MSC_RDPS_WindDir_IsbL-0275_RLatLon0.09_PT034H.grib2 2026-04-28 02:50 479K
20260428T00Z_MSC_RDPS_WindDir_IsbL-0300_RLatLon0.09_PT034H.grib2 2026-04-28 02:50 475K
20260428T00Z_MSC_RDPS_WindDir_IsbL-0350_RLatLon0.09_PT034H.grib2 2026-04-28 02:50 496K
20260428T00Z_MSC_RDPS_WindDir_IsbL-0400_RLatLon0.09_PT034H.grib2 2026-04-28 02:50 518K
20260428T00Z_MSC_RDPS_WindDir_IsbL-0450_RLatLon0.09_PT034H.grib2 2026-04-28 02:50 531K
20260428T00Z_MSC_RDPS_WindDir_IsbL-0500_RLatLon0.09_PT034H.grib2 2026-04-28 02:50 546K
20260428T00Z_MSC_RDPS_WindDir_IsbL-0550_RLatLon0.09_PT034H.grib2 2026-04-28 02:50 561K
20260428T00Z_MSC_RDPS_WindDir_IsbL-0600_RLatLon0.09_PT034H.grib2 2026-04-28 02:50 585K
20260428T00Z_MSC_RDPS_WindDir_IsbL-0650_RLatLon0.09_PT034H.grib2 2026-04-28 02:50 623K
20260428T00Z_MSC_RDPS_WindDir_IsbL-0700_RLatLon0.09_PT034H.grib2 2026-04-28 02:50 663K
20260428T00Z_MSC_RDPS_WindDir_IsbL-0750_RLatLon0.09_PT034H.grib2 2026-04-28 02:50 712K
20260428T00Z_MSC_RDPS_WindDir_IsbL-0800_RLatLon0.09_PT034H.grib2 2026-04-28 02:50 777K
20260428T00Z_MSC_RDPS_WindDir_IsbL-0850_RLatLon0.09_PT034H.grib2 2026-04-28 02:50 855K
20260428T00Z_MSC_RDPS_WindDir_IsbL-0875_RLatLon0.09_PT034H.grib2 2026-04-28 02:50 883K
20260428T00Z_MSC_RDPS_WindDir_IsbL-0900_RLatLon0.09_PT034H.grib2 2026-04-28 02:50 900K
20260428T00Z_MSC_RDPS_WindDir_IsbL-0925_RLatLon0.09_PT034H.grib2 2026-04-28 02:50 911K
20260428T00Z_MSC_RDPS_WindDir_IsbL-0950_RLatLon0.09_PT034H.grib2 2026-04-28 02:50 915K
20260428T00Z_MSC_RDPS_WindDir_IsbL-0970_RLatLon0.09_PT034H.grib2 2026-04-28 02:50 926K
20260428T00Z_MSC_RDPS_WindDir_IsbL-0985_RLatLon0.09_PT034H.grib2 2026-04-28 02:50 936K
20260428T00Z_MSC_RDPS_WindDir_IsbL-1000_RLatLon0.09_PT034H.grib2 2026-04-28 02:50 953K
20260428T00Z_MSC_RDPS_WindDir_IsbL-1015_RLatLon0.09_PT034H.grib2 2026-04-28 02:50 971K
20260428T00Z_MSC_RDPS_WindGust-Max_AGL-10m_RLatLon0.09_PT034H.grib2 2026-04-28 02:50 955K
20260428T00Z_MSC_RDPS_WindGust-Min_AGL-10m_RLatLon0.09_PT034H.grib2 2026-04-28 02:50 971K
20260428T00Z_MSC_RDPS_WindGust_AGL-10m_RLatLon0.09_PT034H.grib2 2026-04-28 02:50 1.0M
20260428T00Z_MSC_RDPS_WindSpeed_AGL-10m_RLatLon0.09_PT034H.grib2 2026-04-28 02:50 842K
20260428T00Z_MSC_RDPS_WindSpeed_AGL-120m_RLatLon0.09_PT034H.grib2 2026-04-28 02:50 554K
20260428T00Z_MSC_RDPS_WindSpeed_AGL-40m_RLatLon0.09_PT034H.grib2 2026-04-28 02:50 556K
20260428T00Z_MSC_RDPS_WindSpeed_AGL-80m_RLatLon0.09_PT034H.grib2 2026-04-28 02:50 555K
20260428T00Z_MSC_RDPS_WindSpeed_IsbL-0001_RLatLon0.09_PT034H.grib2 2026-04-28 02:50 336K
20260428T00Z_MSC_RDPS_WindSpeed_IsbL-0005_RLatLon0.09_PT034H.grib2 2026-04-28 02:50 300K
20260428T00Z_MSC_RDPS_WindSpeed_IsbL-0010_RLatLon0.09_PT034H.grib2 2026-04-28 02:50 310K
20260428T00Z_MSC_RDPS_WindSpeed_IsbL-0020_RLatLon0.09_PT034H.grib2 2026-04-28 02:50 327K
20260428T00Z_MSC_RDPS_WindSpeed_IsbL-0030_RLatLon0.09_PT034H.grib2 2026-04-28 02:50 324K
20260428T00Z_MSC_RDPS_WindSpeed_IsbL-0050_RLatLon0.09_PT034H.grib2 2026-04-28 02:50 462K
20260428T00Z_MSC_RDPS_WindSpeed_IsbL-0100_RLatLon0.09_PT034H.grib2 2026-04-28 02:50 488K
20260428T00Z_MSC_RDPS_WindSpeed_IsbL-0150_RLatLon0.09_PT034H.grib2 2026-04-28 02:50 389K
20260428T00Z_MSC_RDPS_WindSpeed_IsbL-0175_RLatLon0.09_PT034H.grib2 2026-04-28 02:50 434K
20260428T00Z_MSC_RDPS_WindSpeed_IsbL-0200_RLatLon0.09_PT034H.grib2 2026-04-28 02:50 452K
20260428T00Z_MSC_RDPS_WindSpeed_IsbL-0225_RLatLon0.09_PT034H.grib2 2026-04-28 02:50 456K
20260428T00Z_MSC_RDPS_WindSpeed_IsbL-0250_RLatLon0.09_PT034H.grib2 2026-04-28 02:50 461K
20260428T00Z_MSC_RDPS_WindSpeed_IsbL-0275_RLatLon0.09_PT034H.grib2 2026-04-28 02:50 481K
20260428T00Z_MSC_RDPS_WindSpeed_IsbL-0300_RLatLon0.09_PT034H.grib2 2026-04-28 02:50 478K
20260428T00Z_MSC_RDPS_WindSpeed_IsbL-0350_RLatLon0.09_PT034H.grib2 2026-04-28 02:50 489K
20260428T00Z_MSC_RDPS_WindSpeed_IsbL-0400_RLatLon0.09_PT034H.grib2 2026-04-28 02:50 472K
20260428T00Z_MSC_RDPS_WindSpeed_IsbL-0450_RLatLon0.09_PT034H.grib2 2026-04-28 02:50 470K
20260428T00Z_MSC_RDPS_WindSpeed_IsbL-0500_RLatLon0.09_PT034H.grib2 2026-04-28 02:50 468K
20260428T00Z_MSC_RDPS_WindSpeed_IsbL-0550_RLatLon0.09_PT034H.grib2 2026-04-28 02:50 467K
20260428T00Z_MSC_RDPS_WindSpeed_IsbL-0600_RLatLon0.09_PT034H.grib2 2026-04-28 02:50 591K
20260428T00Z_MSC_RDPS_WindSpeed_IsbL-0650_RLatLon0.09_PT034H.grib2 2026-04-28 02:50 608K
20260428T00Z_MSC_RDPS_WindSpeed_IsbL-0700_RLatLon0.09_PT034H.grib2 2026-04-28 02:50 631K
20260428T00Z_MSC_RDPS_WindSpeed_IsbL-0750_RLatLon0.09_PT034H.grib2 2026-04-28 02:50 659K
20260428T00Z_MSC_RDPS_WindSpeed_IsbL-0800_RLatLon0.09_PT034H.grib2 2026-04-28 02:50 706K
20260428T00Z_MSC_RDPS_WindSpeed_IsbL-0850_RLatLon0.09_PT034H.grib2 2026-04-28 02:50 767K
20260428T00Z_MSC_RDPS_WindSpeed_IsbL-0875_RLatLon0.09_PT034H.grib2 2026-04-28 02:50 833K
20260428T00Z_MSC_RDPS_WindSpeed_IsbL-0900_RLatLon0.09_PT034H.grib2 2026-04-28 02:50 848K
20260428T00Z_MSC_RDPS_WindSpeed_IsbL-0925_RLatLon0.09_PT034H.grib2 2026-04-28 02:50 860K
20260428T00Z_MSC_RDPS_WindSpeed_IsbL-0950_RLatLon0.09_PT034H.grib2 2026-04-28 02:50 862K
20260428T00Z_MSC_RDPS_WindSpeed_IsbL-0970_RLatLon0.09_PT034H.grib2 2026-04-28 02:50 862K
20260428T00Z_MSC_RDPS_WindSpeed_IsbL-0985_RLatLon0.09_PT034H.grib2 2026-04-28 02:50 855K
20260428T00Z_MSC_RDPS_WindSpeed_IsbL-1000_RLatLon0.09_PT034H.grib2 2026-04-28 02:50 850K
20260428T00Z_MSC_RDPS_WindSpeed_IsbL-1015_RLatLon0.09_PT034H.grib2 2026-04-28 02:50 841K
20260428T00Z_MSC_RDPS_WindU_AGL-10m_RLatLon0.09_PT034H.grib2 2026-04-28 02:50 381K
20260428T00Z_MSC_RDPS_WindU_AGL-120m_RLatLon0.09_PT034H.grib2 2026-04-28 02:50 421K
20260428T00Z_MSC_RDPS_WindU_AGL-40m_RLatLon0.09_PT034H.grib2 2026-04-28 02:50 423K
20260428T00Z_MSC_RDPS_WindU_AGL-80m_RLatLon0.09_PT034H.grib2 2026-04-28 02:50 422K
20260428T00Z_MSC_RDPS_WindU_IsbL-0001_RLatLon0.09_PT034H.grib2 2026-04-28 02:50 295K
20260428T00Z_MSC_RDPS_WindU_IsbL-0005_RLatLon0.09_PT034H.grib2 2026-04-28 02:50 291K
20260428T00Z_MSC_RDPS_WindU_IsbL-0010_RLatLon0.09_PT034H.grib2 2026-04-28 02:50 301K
20260428T00Z_MSC_RDPS_WindU_IsbL-0020_RLatLon0.09_PT034H.grib2 2026-04-28 02:50 318K
20260428T00Z_MSC_RDPS_WindU_IsbL-0030_RLatLon0.09_PT034H.grib2 2026-04-28 02:50 315K
20260428T00Z_MSC_RDPS_WindU_IsbL-0050_RLatLon0.09_PT034H.grib2 2026-04-28 02:50 384K
20260428T00Z_MSC_RDPS_WindU_IsbL-0100_RLatLon0.09_PT034H.grib2 2026-04-28 02:50 344K
20260428T00Z_MSC_RDPS_WindU_IsbL-0150_RLatLon0.09_PT034H.grib2 2026-04-28 02:50 404K
20260428T00Z_MSC_RDPS_WindU_IsbL-0175_RLatLon0.09_PT034H.grib2 2026-04-28 02:50 427K
20260428T00Z_MSC_RDPS_WindU_IsbL-0200_RLatLon0.09_PT034H.grib2 2026-04-28 02:50 344K
20260428T00Z_MSC_RDPS_WindU_IsbL-0225_RLatLon0.09_PT034H.grib2 2026-04-28 02:50 348K
20260428T00Z_MSC_RDPS_WindU_IsbL-0250_RLatLon0.09_PT034H.grib2 2026-04-28 02:50 350K
20260428T00Z_MSC_RDPS_WindU_IsbL-0275_RLatLon0.09_PT034H.grib2 2026-04-28 02:50 366K
20260428T00Z_MSC_RDPS_WindU_IsbL-0300_RLatLon0.09_PT034H.grib2 2026-04-28 02:50 465K
20260428T00Z_MSC_RDPS_WindU_IsbL-0350_RLatLon0.09_PT034H.grib2 2026-04-28 02:50 475K
20260428T00Z_MSC_RDPS_WindU_IsbL-0400_RLatLon0.09_PT034H.grib2 2026-04-28 02:50 475K
20260428T00Z_MSC_RDPS_WindU_IsbL-0450_RLatLon0.09_PT034H.grib2 2026-04-28 02:50 473K
20260428T00Z_MSC_RDPS_WindU_IsbL-0500_RLatLon0.09_PT034H.grib2 2026-04-28 02:50 472K
20260428T00Z_MSC_RDPS_WindU_IsbL-0550_RLatLon0.09_PT034H.grib2 2026-04-28 02:50 471K
20260428T00Z_MSC_RDPS_WindU_IsbL-0600_RLatLon0.09_PT034H.grib2 2026-04-28 02:50 460K
20260428T00Z_MSC_RDPS_WindU_IsbL-0650_RLatLon0.09_PT034H.grib2 2026-04-28 02:50 476K
20260428T00Z_MSC_RDPS_WindU_IsbL-0700_RLatLon0.09_PT034H.grib2 2026-04-28 02:50 498K
20260428T00Z_MSC_RDPS_WindU_IsbL-0750_RLatLon0.09_PT034H.grib2 2026-04-28 02:50 525K
20260428T00Z_MSC_RDPS_WindU_IsbL-0800_RLatLon0.09_PT034H.grib2 2026-04-28 02:50 568K
20260428T00Z_MSC_RDPS_WindU_IsbL-0850_RLatLon0.09_PT034H.grib2 2026-04-28 02:50 632K
20260428T00Z_MSC_RDPS_WindU_IsbL-0875_RLatLon0.09_PT034H.grib2 2026-04-28 02:50 648K
20260428T00Z_MSC_RDPS_WindU_IsbL-0900_RLatLon0.09_PT034H.grib2 2026-04-28 02:50 651K
20260428T00Z_MSC_RDPS_WindU_IsbL-0925_RLatLon0.09_PT034H.grib2 2026-04-28 02:50 664K
20260428T00Z_MSC_RDPS_WindU_IsbL-0950_RLatLon0.09_PT034H.grib2 2026-04-28 02:50 654K
20260428T00Z_MSC_RDPS_WindU_IsbL-0970_RLatLon0.09_PT034H.grib2 2026-04-28 02:50 653K
20260428T00Z_MSC_RDPS_WindU_IsbL-0985_RLatLon0.09_PT034H.grib2 2026-04-28 02:50 649K
20260428T00Z_MSC_RDPS_WindU_IsbL-1000_RLatLon0.09_PT034H.grib2 2026-04-28 02:50 646K
20260428T00Z_MSC_RDPS_WindU_IsbL-1015_RLatLon0.09_PT034H.grib2 2026-04-28 02:50 641K
20260428T00Z_MSC_RDPS_WindV_AGL-10m_RLatLon0.09_PT034H.grib2 2026-04-28 02:50 433K
20260428T00Z_MSC_RDPS_WindV_AGL-120m_RLatLon0.09_PT034H.grib2 2026-04-28 02:50 538K
20260428T00Z_MSC_RDPS_WindV_AGL-40m_RLatLon0.09_PT034H.grib2 2026-04-28 02:50 540K
20260428T00Z_MSC_RDPS_WindV_AGL-80m_RLatLon0.09_PT034H.grib2 2026-04-28 02:50 539K
20260428T00Z_MSC_RDPS_WindV_IsbL-0001_RLatLon0.09_PT034H.grib2 2026-04-28 02:50 247K
20260428T00Z_MSC_RDPS_WindV_IsbL-0005_RLatLon0.09_PT034H.grib2 2026-04-28 02:50 291K
20260428T00Z_MSC_RDPS_WindV_IsbL-0010_RLatLon0.09_PT034H.grib2 2026-04-28 02:50 302K
20260428T00Z_MSC_RDPS_WindV_IsbL-0020_RLatLon0.09_PT034H.grib2 2026-04-28 02:50 358K
20260428T00Z_MSC_RDPS_WindV_IsbL-0030_RLatLon0.09_PT034H.grib2 2026-04-28 02:50 319K
20260428T00Z_MSC_RDPS_WindV_IsbL-0050_RLatLon0.09_PT034H.grib2 2026-04-28 02:50 350K
20260428T00Z_MSC_RDPS_WindV_IsbL-0100_RLatLon0.09_PT034H.grib2 2026-04-28 02:50 339K
20260428T00Z_MSC_RDPS_WindV_IsbL-0150_RLatLon0.09_PT034H.grib2 2026-04-28 02:50 402K
20260428T00Z_MSC_RDPS_WindV_IsbL-0175_RLatLon0.09_PT034H.grib2 2026-04-28 02:50 330K
20260428T00Z_MSC_RDPS_WindV_IsbL-0200_RLatLon0.09_PT034H.grib2 2026-04-28 02:50 344K
20260428T00Z_MSC_RDPS_WindV_IsbL-0225_RLatLon0.09_PT034H.grib2 2026-04-28 02:50 346K
20260428T00Z_MSC_RDPS_WindV_IsbL-0250_RLatLon0.09_PT034H.grib2 2026-04-28 02:50 373K
20260428T00Z_MSC_RDPS_WindV_IsbL-0275_RLatLon0.09_PT034H.grib2 2026-04-28 02:50 388K
20260428T00Z_MSC_RDPS_WindV_IsbL-0300_RLatLon0.09_PT034H.grib2 2026-04-28 02:50 385K
20260428T00Z_MSC_RDPS_WindV_IsbL-0350_RLatLon0.09_PT034H.grib2 2026-04-28 02:50 370K
20260428T00Z_MSC_RDPS_WindV_IsbL-0400_RLatLon0.09_PT034H.grib2 2026-04-28 02:50 372K
20260428T00Z_MSC_RDPS_WindV_IsbL-0450_RLatLon0.09_PT034H.grib2 2026-04-28 02:50 474K
20260428T00Z_MSC_RDPS_WindV_IsbL-0500_RLatLon0.09_PT034H.grib2 2026-04-28 02:50 471K
20260428T00Z_MSC_RDPS_WindV_IsbL-0550_RLatLon0.09_PT034H.grib2 2026-04-28 02:50 470K
20260428T00Z_MSC_RDPS_WindV_IsbL-0600_RLatLon0.09_PT034H.grib2 2026-04-28 02:50 476K
20260428T00Z_MSC_RDPS_WindV_IsbL-0650_RLatLon0.09_PT034H.grib2 2026-04-28 02:50 491K
20260428T00Z_MSC_RDPS_WindV_IsbL-0700_RLatLon0.09_PT034H.grib2 2026-04-28 02:50 510K
20260428T00Z_MSC_RDPS_WindV_IsbL-0750_RLatLon0.09_PT034H.grib2 2026-04-28 02:50 534K
20260428T00Z_MSC_RDPS_WindV_IsbL-0800_RLatLon0.09_PT034H.grib2 2026-04-28 02:50 575K
20260428T00Z_MSC_RDPS_WindV_IsbL-0850_RLatLon0.09_PT034H.grib2 2026-04-28 02:50 618K
20260428T00Z_MSC_RDPS_WindV_IsbL-0875_RLatLon0.09_PT034H.grib2 2026-04-28 02:50 636K
20260428T00Z_MSC_RDPS_WindV_IsbL-0900_RLatLon0.09_PT034H.grib2 2026-04-28 02:50 647K
20260428T00Z_MSC_RDPS_WindV_IsbL-0925_RLatLon0.09_PT034H.grib2 2026-04-28 02:50 657K
20260428T00Z_MSC_RDPS_WindV_IsbL-0950_RLatLon0.09_PT034H.grib2 2026-04-28 02:50 657K
20260428T00Z_MSC_RDPS_WindV_IsbL-0970_RLatLon0.09_PT034H.grib2 2026-04-28 02:50 798K
20260428T00Z_MSC_RDPS_WindV_IsbL-0985_RLatLon0.09_PT034H.grib2 2026-04-28 02:50 793K
20260428T00Z_MSC_RDPS_WindV_IsbL-1000_RLatLon0.09_PT034H.grib2 2026-04-28 02:50 834K
20260428T00Z_MSC_RDPS_WindV_IsbL-1015_RLatLon0.09_PT034H.grib2 2026-04-28 02:50 826K